• In France
  • List of Countries
  • For 7 days
  • Water Temperature
  • Satellite Maps
  • Weather Map
  • Weather Widgets
  • user-avatar
    Login

    Hourly Weather Larne

    Today, 18 January, Thursday

    Time Temperature Precipitation Wind Pressure Humidity
    00:00 +2°C° 1.3 mm 3 mps 737 mmHg 96%
    01:00 +1°C° 0.1 mm 4 mps 738 mmHg 95%
    02:00 +1°C° 0.1 mm 5 mps 739 mmHg 95%
    03:00 +1°C° 0.1 mm 6 mps 739 mmHg 94%
    04:00 +1°C° 0.3 mm 6 mps 740 mmHg 93%
    05:00 0°C° 0.3 mm 7 mps 741 mmHg 93%
    06:00 +2°C° 0.3 mm 7 mps 741 mmHg 92%
    07:00 0°C° 0.2 mm 7 mps 742 mmHg 90%
    08:00 0°C° 0.2 mm 7 mps 742 mmHg 89%
    09:00 0°C° 0.2 mm 8 mps 742 mmHg 87%
    10:00 0°C° 0.2 mm 8 mps 743 mmHg 86%
    11:00 +1°C° 0.2 mm 8 mps 744 mmHg 84%
    12:00 +1°C° 0.2 mm 8 mps 745 mmHg 83%
    13:00 +1°C° 0.1 mm 8 mps 745 mmHg 82%
    14:00 +1°C° 0.1 mm 8 mps 745 mmHg 81%
    15:00 0°C° 0.1 mm 8 mps 746 mmHg 80%
    16:00 0°C° 0.1 mm 7 mps 746 mmHg 81%
    17:00 -1°C° 0.1 mm 7 mps 746 mmHg 82%
    18:00 -1°C° 0.1 mm 7 mps 747 mmHg 82%
    19:00 -1°C° 0.1 mm 7 mps 747 mmHg 83%
    20:00 -2°C° 0.1 mm 7 mps 747 mmHg 83%
    21:00 -2°C° 0.1 mm 7 mps 748 mmHg 83%
    22:00 -2°C° 0.1 mm 7 mps 748 mmHg 83%
    23:00 -2°C° 0.1 mm 7 mps 748 mmHg 83%

    Tomorrow, 19 January, Friday

    Time Temperature Precipitation Wind Pressure Humidity
    00:00 -2°C° 0.1 mm 8 mps 747 mmHg 83%
    01:00 -2°C° 0.1 mm 8 mps 747 mmHg 84%
    02:00 -2°C° 0.1 mm 8 mps 747 mmHg 84%
    03:00 -2°C° 0.1 mm 8 mps 747 mmHg 84%
    04:00 -2°C° 0.2 mm 8 mps 747 mmHg 85%
    05:00 -2°C° 0.2 mm 8 mps 747 mmHg 85%
    06:00 -1°C° 0.2 mm 8 mps 747 mmHg 86%
    07:00 -2°C° 0.3 mm 8 mps 747 mmHg 83%
    08:00 -2°C° 0.3 mm 8 mps 747 mmHg 81%
    09:00 -2°C° 0.3 mm 8 mps 747 mmHg 79%
    10:00 -1°C° 0.2 mm 9 mps 747 mmHg 79%
    11:00 -1°C° 0.2 mm 9 mps 747 mmHg 79%
    12:00 0°C° 0.2 mm 10 mps 747 mmHg 78%
    13:00 0°C° 0.3 mm 10 mps 747 mmHg 77%
    14:00 0°C° 0.3 mm 10 mps 747 mmHg 76%
    15:00 0°C° 0.3 mm 10 mps 747 mmHg 75%
    16:00 0°C° 0.2 mm 9 mps 747 mmHg 76%
    17:00 -1°C° 0.2 mm 9 mps 747 mmHg 77%
    18:00 -1°C° 0.2 mm 9 mps 748 mmHg 78%
    19:00 -1°C° 0.1 mm 9 mps 748 mmHg 79%
    20:00 -1°C° 0.1 mm 9 mps 748 mmHg 80%
    21:00 -1°C° 0.1 mm 9 mps 749 mmHg 81%
    22:00 -1°C° 0.1 mm 8 mps 749 mmHg 82%
    23:00 -1°C° 0.1 mm 8 mps 749 mmHg 82%

    Day after tomorrow, 20 January, Saturday

    Time Temperature Precipitation Wind Pressure Humidity
    00:00 -1°C° 0.1 mm 8 mps 749 mmHg 83%
    01:00 -2°C° 0.1 mm 8 mps 749 mmHg 84%
    02:00 -2°C° 0.1 mm 7 mps 749 mmHg 85%
    03:00 -2°C° 0.1 mm 7 mps 749 mmHg 86%
    04:00 -2°C° 0.1 mm 7 mps 749 mmHg 86%
    05:00 -2°C° 0.1 mm 6 mps 749 mmHg 87%
    06:00 -2°C° 0.1 mm 6 mps 750 mmHg 87%
    07:00 -2°C° 0 mm 6 mps 750 mmHg 87%
    08:00 -1°C° 0 mm 5 mps 751 mmHg 86%
    09:00 -1°C° 0 mm 5 mps 751 mmHg 86%
    10:00 0°C° 0 mm 5 mps 752 mmHg 86%
    11:00 +1°C° 0 mm 4 mps 752 mmHg 86%
    12:00 +1°C° 0 mm 4 mps 752 mmHg 86%
    13:00 +2°C° 0 mm 3 mps 753 mmHg 86%
    14:00 +2°C° 0 mm 3 mps 753 mmHg 87%
    15:00 +3°C° 0 mm 2 mps 753 mmHg 88%
    16:00 +3°C° 0 mm 2 mps 753 mmHg 88%
    17:00 +3°C° 0 mm 2 mps 753 mmHg 88%
    18:00 +2°C° 0 mm 2 mps 753 mmHg 88%
    19:00 +1°C° 0.1 mm 3 mps 753 mmHg 87%
    20:00 +1°C° 0.1 mm 4 mps 753 mmHg 86%
    21:00 +1°C° 0.1 mm 5 mps 753 mmHg 86%
    22:00 +1°C° 0.7 mm 6 mps 753 mmHg 88%
    23:00 0°C° 0.7 mm 7 mps 752 mmHg 90%

    21 January, Sunday

    Time Temperature Precipitation Wind Pressure Humidity
    00:00 0°C° 0.7 mm 8 mps 751 mmHg 92%
    01:00 +1°C° 2.3 mm 9 mps 751 mmHg 93%
    02:00 +1°C° 2.3 mm 9 mps 750 mmHg 94%
    03:00 +1°C° 2.3 mm 10 mps 749 mmHg 96%
    04:00 +2°C° 3.2 mm 9 mps 748 mmHg 96%
    05:00 +2°C° 3.2 mm 8 mps 747 mmHg 97%
    06:00 +4°C° 3.2 mm 7 mps 747 mmHg 98%
    07:00 +5°C° 2.1 mm 6 mps 747 mmHg 98%
    08:00 +7°C° 2.1 mm 6 mps 747 mmHg 98%
    09:00 +7°C° 2.1 mm 5 mps 747 mmHg 98%
    10:00 +8°C° 0.2 mm 5 mps 747 mmHg 97%
    11:00 +8°C° 0.2 mm 6 mps 748 mmHg 97%
    12:00 +9°C° 0.2 mm 6 mps 748 mmHg 96%
    13:00 +8°C° 0.1 mm 6 mps 749 mmHg 94%
    14:00 +8°C° 0.1 mm 6 mps 749 mmHg 93%
    15:00 +7°C° 0.1 mm 6 mps 750 mmHg 91%
    16:00 +7°C° 0 mm 6 mps 751 mmHg 90%
    17:00 +6°C° 0 mm 5 mps 751 mmHg 89%
    18:00 +5°C° 0 mm 5 mps 752 mmHg 88%
    19:00 +5°C° 0 mm 5 mps 753 mmHg 88%
    20:00 +4°C° 0 mm 4 mps 753 mmHg 89%
    21:00 +4°C° 0 mm 4 mps 753 mmHg 89%
    22:00 +4°C° 0 mm 4 mps 754 mmHg 90%
    23:00 +4°C° 0 mm 4 mps 754 mmHg 90%

    22 January, Monday

    Time Temperature Precipitation Wind Pressure Humidity
    00:00 +4°C° 0 mm 3 mps 754 mmHg 91%
    01:00 +3°C° 0 mm 3 mps 754 mmHg 91%
    02:00 +3°C° 0 mm 3 mps 754 mmHg 91%
    03:00 +3°C° 0 mm 3 mps 753 mmHg 91%
    04:00 +3°C° 0 mm 3 mps 753 mmHg 91%
    05:00 +3°C° 0 mm 3 mps 752 mmHg 92%
    06:00 +3°C° 0 mm 4 mps 751 mmHg 92%
    07:00 +4°C° 0.8 mm 4 mps 750 mmHg 93%
    08:00 +3°C° 0.8 mm 5 mps 749 mmHg 94%
    09:00 +3°C° 0.8 mm 6 mps 748 mmHg 95%
    10:00 +4°C° 1.7 mm 6 mps 747 mmHg 96%
    11:00 +5°C° 1.7 mm 6 mps 746 mmHg 97%
    12:00 +5°C° 1.7 mm 6 mps 744 mmHg 97%
    13:00 +5°C° 1.6 mm 6 mps 744 mmHg 97%
    14:00 +7°C° 1.6 mm 6 mps 743 mmHg 96%
    15:00 +6°C° 1.6 mm 7 mps 743 mmHg 96%
    16:00 +5°C° 0 mm 6 mps 744 mmHg 95%
    17:00 +5°C° 0 mm 5 mps 745 mmHg 95%
    18:00 +5°C° 0 mm 4 mps 745 mmHg 95%
    19:00 +5°C° 0.2 mm 5 mps 746 mmHg 95%
    20:00 +6°C° 0.2 mm 5 mps 746 mmHg 94%
    21:00 +5°C° 0.2 mm 6 mps 746 mmHg 94%
    22:00 +6°C° 0.3 mm 7 mps 746 mmHg 92%
    23:00 +6°C° 0.3 mm 8 mps 746 mmHg 90%

    23 January, Tuesday

    Time Temperature Precipitation Wind Pressure Humidity
    00:00 +7°C° 0.3 mm 9 mps 746 mmHg 88%
    01:00 +6°C° 0.1 mm 8 mps 747 mmHg 88%
    02:00 +5°C° 0.1 mm 8 mps 748 mmHg 88%
    03:00 +4°C° 0.1 mm 8 mps 749 mmHg 88%
    04:00 +4°C° 0 mm 7 mps 749 mmHg 88%
    05:00 +4°C° 0 mm 7 mps 750 mmHg 88%
    06:00 +4°C° 0 mm 7 mps 751 mmHg 88%
    07:00 +4°C° 0 mm 7 mps 751 mmHg 89%
    08:00 +4°C° 0 mm 7 mps 751 mmHg 90%
    09:00 +4°C° 0 mm 8 mps 752 mmHg 91%
    10:00 +5°C° 0 mm 8 mps 751 mmHg 89%
    11:00 +6°C° 0 mm 8 mps 751 mmHg 88%
    12:00 +6°C° 0 mm 9 mps 751 mmHg 87%
    13:00 +7°C° 0.2 mm 10 mps 750 mmHg 87%
    14:00 +8°C° 0.2 mm 10 mps 749 mmHg 88%
    15:00 +9°C° 0.2 mm 11 mps 747 mmHg 88%
    16:00 +9°C° 0.5 mm 11 mps 747 mmHg 88%
    17:00 +9°C° 0.5 mm 12 mps 746 mmHg 88%
    18:00 +9°C° 0.5 mm 12 mps 746 mmHg 88%
    19:00 +9°C° 0.2 mm 11 mps 746 mmHg 89%
    20:00 +8°C° 0.2 mm 10 mps 746 mmHg 90%
    21:00 +8°C° 0.2 mm 9 mps 746 mmHg 90%
    22:00 +7°C° 1.1 mm 8 mps 745 mmHg 91%
    23:00 +8°C° 1.1 mm 7 mps 745 mmHg 91%
    Show more